Regional Weather Roundup
Issued by NWS Cleveland, OH

Home | Current Version | Previous Version | Text Only | Print | Product List | Glossary Off
Versions: 1 2 3 4 5 6 7 8 9 10 11 12 13 14 15 16 17 18 19 20 21 22 23 24 25 26 27 28 29 30 31 32 33 34 35 36 37 38 39 40 41 42 43 44 45 46 47 48 49 50

000
ASUS41 KCLE 051702
RWRCLE
OHIO REGIONAL WEATHER ROUNDUP
NATIONAL WEATHER SERVICE CLEVELAND, OH
1200 PM EST THU MAR 05 2015

NOTE: "FAIR" INDICATES FEW OR NO CLOUDS BELOW 12,000 FEET WITH NO
SIGNIFICANT WEATHER AND/OR OBSTRUCTIONS TO VISIBILITY.

OHZ001>008-015>018-024>027-034-035-043-044-051800-
   NORTHWEST OHIO

CITY           SKY/WX    TMP DP  RH WIND       PRES   REMARKS
DEFIANCE       MOSUNNY   19   2  47 N8        30.41R WCI   9
FINDLAY        PTSUNNY   18   4  54 N8        30.37R WCI   8
TOLEDO EXPRESS MOSUNNY   16   3  56 NW6       30.40R WCI   7
TOLEDO EXEC    MOSUNNY   14   4  64 NE6       30.41R WCI   5
LIMA           CLOUDY    17   5  59 N10       30.35S WCI   5
$$

OHZ009>014-019>023-028>033-038-089-051800-
   NORTHEAST OHIO

CITY           SKY/WX    TMP DP  RH WIND       PRES   REMARKS
CLE-HOPKINS    CLOUDY    13   2  61 N10       30.39R WCI   0
CLE-LAKEFRONT  CLOUDY    13   2  61 NE9       30.38R WCI   1
CUY CO. ARPT   CLOUDY    14   5  67 NE14      30.35S WCI  -1
LORAIN-ELYRIA  PTSUNNY   13   3  64 NE8       30.37R WCI   2
ASHTABULA      CLOUDY    10  -4  53 N7        30.35S WCI  -1
AKRON-CANTON   CLOUDY    15   1  53 N9        30.30R WCI   3
WOOSTER        CLOUDY    15   4  61 N9        30.31R WCI   3
MANSFIELD      CLOUDY    15   4  61 N9        30.30R WCI   3
YOUNGSTOWN     CLOUDY    12  -2  53 N15       30.29R WCI  -4
$$

OHZ042-051>053-060>062-070>072-077>081-051800-
  SOUTHWEST OHIO

CITY           SKY/WX    TMP DP  RH WIND       PRES   REMARKS
CINC-COVINGTON CLOUDY    21   9  59 VRB7      30.36R WCI  12
CINC-LUNKEN    CLOUDY    21   5  50 N13       30.40R WCI   9
HAMILTON       FLURRIES  22   3  44 N10       30.39R WCI  11
DAYTON         PTSUNNY   20   6  55 NW9       30.36S WCI   9
WRIGHT-PAT AFB NOT AVBL
DAYTON GENERAL PTSUNNY   20   3  48 N8        30.34R WCI  10
WILMINGTON     CLOUDY    19   4  51 N8        30.33R WCI   9
$$

OHZ036-037-039>041-045>050-054>059-063>069-073>076-082>088-051800-
  CENTRAL AND SOUTHEAST OHIO

CITY           SKY/WX    TMP DP  RH WIND       PRES   REMARKS
COLUMBUS       CLOUDY    19   6  57 N12       30.33S WCI   7
OSU AIRPORT    CLOUDY    18   6  59 N9        30.33S WCI   7
BOLTON FIELD   CLOUDY    19   7  58 NW8       30.34R WCI   9
RICKENBACK AFB NOT AVBL
NEWARK         CLOUDY    19   2  47 N8        30.32R WCI   9
MARION         CLOUDY    17   6  62 N10       30.34S WCI   5
LANCASTER      CLOUDY    20   8  60 N8        30.34R WCI  10
ZANESVILLE     CLOUDY    19   3  49 N6        30.29S WCI  11
NEW PHILLY     CLOUDY    19   2  47 NE9       30.31R WCI   8
$$



USA.gov is the U.S. government's official web portal to all federal, state and local government web resources and services.